Location: Sungai Anya
(2.6167°N, 114.0500°E)
Time: 15:27:25
(UTC+00:00)

Cosmos 1153 Rocket - Pass Details

Date: 01 June 2022
Orbit: 954 x 1005 km, 82.9° (Epoch: 03 July)

Event Time Altitude Azimuth Distance (km) Brightness Sun altitude
Rises 20:47:02 0° 16° (NNE) 3,718 8.1 -20.8°
Reaches altitude 10° 20:49:53 10° 26° (NNE) 2,770 7.6 -20.1°
Maximum altitude 20:55:23 31° 87° (E) 1,685 6.4 -18.9°
Drops below altitude 10° 21:00:51 10° 146° (SE) 2,766 7.0 -17.6°
Sets 21:03:40 0° 156° (SSE) 3,711 7.5 -17.0°
